Tracking 17145 objects as of 22-May-2015
HD Live streaming from Space Station

NAVSTAR 28 (USA 85)

Track NAVSTAR 28 (USA 85) now!
NAVSTAR 28 (USA 85) is classified as:


NORAD ID: 22231
Int'l Code: 1992-079A
Perigee: 19,965.9 km
Apogee: 20,413.3 km
Inclination: 55.6 °
Period: 718.0 minutes
Semi major axis: 26560 km
RCS: 3.981 m2 (large)
Launch date: November 22, 1992
Source: United States (US)
PRN:
Your satellite tracking list
Your tracking list is empty





NASA's NSSDC Master Catalog

Two Line Element Set (TLE):
1 22231U 92079A   15142.64064605 -.00000040  00000-0  00000+0 0  9995
2 22231 055.5620 256.9969 0084213 281.3895 033.4962 02.00560728164812

Source of the keplerian elements: AFSPC

N2YO: 281